Regional Weather Roundup
Issued by NWS State College, PA

Home | Current Version | Previous Version | Graphics & Text | Print | Product List | Glossary Off
Versions: 1 2 3 4 5 6 7 8 9 10 11 12 13 14 15 16 17 18 19 20 21 22 23 24 25 26 27 28 29 30 31 32 33 34 35 36 37 38 39 40 41 42 43 44 45 46 47 48 49 50

000
ASUS41 KCTP 230703
RWRCTP

REGIONAL WEATHER ROUNDUP
NATIONAL WEATHER SERVICE STATE COLLEGE PA
300 AM EDT TUE SEP 23 2014

Note: "fair" indicates few or no clouds below 12,000 feet with no
significant weather and/or obstructions to visibility.

* = STATION THAT DOES NOT REPORT PRECIPITATION /E.G. RAIN...SNOW...ETC/
    THUNDER OR FOG.

PAZ002>004-007>009-013>016-020>023-029>032-230800-
WESTERN PENNSYLVANIA

CITY           SKY/WX    TMP DP  RH WIND       PRES   REMARKS
ERIE           CLEAR     47  41  80 S7        30.28S
MEADVILLE      CLEAR     43  40  89 SW5       30.28S
FRANKLIN*      CLEAR     39  36  87 CALM      30.29S
NEW CASTLE     FOG       38  38 100 CALM      30.30F VSB 1/4
BEAVER COUNTY  NOT AVBL
BUTLER*        CLEAR     39  36  87 CALM      30.31R
PITTSBURGH INT CLEAR     42  39  89 CALM      30.29S
PITTSBURGH     CLEAR     47  39  74 CALM      30.29R
INDIANA*       CLEAR     41  39  93 CALM      30.32F
LATROBE        CLEAR     43  43 100 CALM      30.30S
WASHINGTON CO*   N/A     37  36  93 CALM      30.31S VSB 1/2
$$

PAZ004>006-010>012-017>019-024>028-033>037-041-042-045-046-049>053-230800-
CENTRAL PENNSYLVANIA

CITY           SKY/WX    TMP DP  RH WIND       PRES   REMARKS
BRADFORD       CLEAR     39  38  96 CALM      30.26S
DUBOIS         CLEAR     41  38  89 W5        30.26S
CLEARFIELD     CLEAR     42  40  92 SW6       30.27F
JOHNSTOWN      CLEAR     42  37  82 CALM      30.27S
ALTOONA        CLEAR     43  39  86 CALM      30.27S
STATE COLLEGE  CLEAR     44  41  88 SW6       30.26F
WILLIAMSPORT   CLEAR     44  40  85 NW3       30.25S
SELINSGROVE    CLEAR     42  39  89 CALM      30.26S
FT INDIANTOWN  CLEAR     47  42  82 VRB3      30.24F
CAPITAL CITY   CLEAR     49  42  77 W6        30.25S
HARRISBURG     CLEAR     49  41  74 NW3       30.24S
YORK           CLEAR     42  40  92 NW3       30.24F
$$

PAZ038>040-043-044-047-048-054-055-060>062-067>071-230800-
EASTERN PENNSYLVANIA

CITY           SKY/WX    TMP DP  RH WIND       PRES   REMARKS
SCRANTON       CLEAR     44  39  82 CALM      30.23S
MOUNT POCONO   CLEAR     45  37  73 NW16G23   30.18R
ALLENTOWN      CLEAR     45  38  76 SW5       30.23S
QUAKERTOWN*    SUNNY     41  39  93 CALM      30.24S
READING        CLEAR     47  41  80 CALM      30.23S
LANCASTER      CLEAR     48  40  73 NW5       30.24S
COATESVILLE    SUNNY     46  41  81 NW3       30.24S
POTTSTOWN      CLEAR     44  40  85 CALM      30.25S
BLUE BELL      CLEAR     45  43  93 CALM      30.23R
DOYLESTOWN     CLEAR     45  40  82 CALM      30.22S
WILLOW GROVE   NOT AVBL
NORTH PHILA    PTCLDY    52  38  58 NW5       30.24S
PHILADELPHIA   PTCLDY    55  40  56 NW5       30.24S
$$



USA.gov is the U.S. government's official web portal to all federal, state and local government web resources and services.